This is the latest recevied weather packets stored in our database for station/object DB5ZQ. If no packets are shown the sender has not sent any weather packets the latest 1 day(s).
| Time | Temp. | Humidity | Pressure | Rain* | Wind** | Luminosity | Snow |
|---|---|---|---|---|---|---|---|
| 1777968456 | 20° C | 63% | 1005.2 hPa | 0 mm | 0 m/s | - | - |
| 1777968156 | 19.44° C | 63% | 1005.2 hPa | 0 mm | 0.45 m/s, 206° | - | - |
| 1777967855 | 19.44° C | 64% | 1005.3 hPa | 0 mm | 0 m/s | - | - |
| 1777967555 | 19.44° C | 65% | 1005.3 hPa | 0 mm | 0 m/s | - | - |
| 1777967255 | 18.89° C | 65% | 1005.4 hPa | 0 mm | 0.45 m/s, 258° | - | - |
| 1777966954 | 18.89° C | 66% | 1005.5 hPa | 0 mm | 0 m/s | - | - |
| 1777966654 | 18.89° C | 66% | 1005.5 hPa | 0 mm | 0 m/s | - | - |
| 1777966354 | 18.89° C | 66% | 1005.5 hPa | 0 mm | 0 m/s | - | - |
| 1777966054 | 18.89° C | 67% | 1005.6 hPa | 0 mm | 0 m/s | - | - |
| 1777965753 | 18.89° C | 67% | 1005.6 hPa | 0 mm | 0 m/s | - | - |
| 1777965453 | 18.33° C | 67% | 1005.7 hPa | 0 mm | 0 m/s | - | - |
| 1777965153 | 18.33° C | 68% | 1005.8 hPa | 0 mm | 0 m/s | - | - |
| 1777964852 | 18.33° C | 68% | 1005.8 hPa | 0 mm | 0 m/s | - | - |
| 1777964552 | 18.33° C | 69% | 1005.8 hPa | 0 mm | 0 m/s | - | - |
| 1777964252 | 18.33° C | 69% | 1005.8 hPa | 0 mm | 0 m/s | - | - |
| 1777963952 | 17.78° C | 69% | 1005.7 hPa | 0 mm | 0 m/s | - | - |
| 1777963651 | 18.33° C | 70% | 1005.7 hPa | 0 mm | 0 m/s | - | - |
| 1777963351 | 17.78° C | 70% | 1005.7 hPa | 0 mm | 0 m/s | - | - |
| 1777963051 | 17.78° C | 71% | 1005.7 hPa | 0 mm | 0 m/s | - | - |
| 1777962750 | 17.78° C | 71% | 1005.6 hPa | 0 mm | 0 m/s | - | - |
| 1777962450 | 17.78° C | 71% | 1005.6 hPa | 0 mm | 0.89 m/s, 254° | - | - |
| 1777962150 | 17.78° C | 71% | 1005.6 hPa | 0 mm | 0 m/s | - | - |
| 1777961850 | 17.22° C | 71% | 1005.6 hPa | 0 mm | 0 m/s | - | - |
| 1777961549 | 17.78° C | 71% | 1005.7 hPa | 0 mm | 0 m/s | - | - |
| 1777961249 | 17.22° C | 72% | 1005.7 hPa | 0 mm | 0 m/s | - | - |
* Rain latest hour (hover to see other rain measurements)
** Current wind speed in m/s (hover to see current wind gust speed)